Location: New Orleans
(29.9540°N, 90.0750°W)
Time: 07:01:39
(UTC-05:00)

ISS - Visible Passes

Search period start: 22 October 2017 00:00
Search period end: 01 November 2017 00:00
Orbit: 401 x 408 km, 51.6° (Epoch: 23 October)

Date Brightness Start Highest point End Pass type
(mag) Time Alt. Az. Time Alt. Az. Time Alt. Az.
26 Oct -0.7 06:18:56 10° SSE 06:20:43 14° SE 06:22:31 10° E visible
28 Oct -2.6 06:09:08 10° SSW 06:12:13 42° SE 06:15:18 10° ENE visible
29 Oct -1.3 05:19:05 17° SSE 05:19:57 18° SE 05:22:17 10° E visible
30 Oct -3.8 06:02:49 37° WSW 06:03:47 55° NW 06:06:59 10° NE visible
31 Oct -1.3 05:13:30 19° ENE 05:13:30 19° ENE 05:14:36 10° NE visible
31 Oct -1.6 06:46:59 10° NW 06:48:07 11° NW 06:49:16 10° NNW visible
